This demonstration page uses our WeatherBlox Daily Observations layout. Learn more.

Left ArrowRight Arrow

Hourly Observations for April 15, 2020

Temp ( °F °C ) Dew Point ( °F °C ) Humidity (%) Winds ( mph kmh ) Pressure ( in mb ) Visibility ( mi km ) Precip ( " mm )
12:15 am 00:15 Cloudy 32 0.2 28 -2.3 84 84 NNE 10 17 30.17 1022 10 16 N/A
12:35 am 00:35 Mostly Cloudy 31 -0.5 27 -3 83 83 NNE 7 11 30.18 1022 10 16 N/A
12:55 am 00:55 Cloudy 31 -0.4 26 -3.2 82 82 NNE 5 7 30.19 1022 10 16 N/A
1:15 am 01:15 Cloudy 30 -1 26 -3.5 83 83 N 5 7 30.19 1023 10 16 N/A
1:35 am 01:35 Cloudy 30 -1 26 -3.5 83 83 N N/A 30.20 1023 10 16 N/A
1:55 am 01:55 Cloudy 29 -1.6 25 -3.8 85 85 N N/A 30.21 1023 10 16 N/A
2:15 am 02:15 Partly Cloudy 28 -2.2 24 -4.3 86 86 NW 3 6 30.22 1023 10 16 N/A
2:35 am 02:35 Clear 28 -2.3 24 -4.2 87 87 WNW 3 6 30.21 1023 10 16 N/A
2:55 am 02:55 Clear 26 -3.1 24 -4.7 89 89 N N/A 30.22 1023 10 16 N/A
3:15 am 03:15 Clear 24 -4.2 22 -5.7 89 89 N N/A 30.23 1024 10 16 N/A
3:35 am 03:35 Clear 24 -4.5 21 -6 89 89 N N/A 30.22 1023 10 16 N/A
3:55 am 03:55 Clear 21 -5.9 19 -7.1 91 91 NW 3 6 30.22 1023 10 16 N/A
4:15 am 04:15 Clear 22 -5.5 20 -6.5 93 93 NNW 5 7 30.22 1023 10 16 N/A
4:35 am 04:35 Clear 23 -5 21 -6.1 92 92 N 3 6 30.21 1023 10 16 N/A
4:55 am 04:55 Clear 20 -6.5 18 -7.8 91 91 NW 3 6 30.23 1024 10 16 N/A
5:15 am 05:15 Clear 21 -6 19 -7 93 93 NW 3 6 30.21 1023 10 16 N/A
5:35 am 05:35 Clear 20 -6.5 19 -7.5 93 93 WNW 3 6 30.23 1024 10 16 N/A
5:55 am 05:55 Clear 23 -5.1 21 -6.2 92 92 W 5 7 30.22 1024 10 16 N/A
6:15 am 06:15 Clear 22 -5.5 19 -7 89 89 SW 3 6 30.23 1024 10 16 N/A
6:35 am 06:35 Clear 21 -5.9 19 -7.3 90 90 W 3 6 30.23 1024 10 16 N/A
6:55 am 06:55 Clear 21 -6.3 18 -7.6 91 91 W 5 7 30.24 1024 10 16 N/A
7:15 am 07:15 Partly Cloudy 20 -6.4 18 -7.7 91 91 N N/A 30.25 1024 10 16 N/A
7:35 am 07:35 Sunny 24 -4.6 21 -6.2 89 89 W 3 6 30.23 1024 10 16 N/A
7:55 am 07:55 Sunny 26 -3.3 23 -5 88 88 SSW 3 6 30.22 1023 10 16 N/A
8:15 am 08:15 Sunny 29 -1.5 25 -3.9 84 84 SW 5 7 30.20 1023 10 16 N/A
8:35 am 08:35 Sunny 32 -0.1 27 -2.9 82 82 SW 6 9 30.20 1023 10 16 N/A
8:55 am 08:55 Sunny 34 1 27 -2.7 77 77 SW 6 9 30.18 1022 10 16 N/A
9:15 am 09:15 Sunny 36 2 26 -3.1 69 69 SW 3 6 30.17 1022 10 16 N/A
9:35 am 09:35 Partly Cloudy 37 3 25 -3.9 61 61 WSW 3 6 30.16 1021 10 16 N/A
9:55 am 09:55 Partly Cloudy 39 4 24 -4.5 54 54 N N/A 30.14 1021 10 16 N/A
10:15 am 10:15 Partly Cloudy 40 4.7 24 -4.5 52 52 S 3 6 30.13 1020 10 16 N/A
10:35 am 10:35 Sunny 40 4.5 23 -5.1 50 50 SSE 3 6 30.13 1020 10 16 N/A
10:55 am 10:55 Partly Cloudy 42 5.4 20 -6.6 42 42 SSE 5 7 30.12 1020 10 16 N/A
11:15 am 11:15 Mostly Cloudy 42 5.5 19 -7.5 39 39 S 6 9 30.11 1020 10 16 N/A
11:35 am 11:35 Partly Cloudy 43 6.2 20 -6.7 39 39 SE 5 7 30.11 1020 10 16 N/A
11:55 am 11:55 Sunny 45 7 21 -6.3 39 39 N N/A 30.10 1019 10 16 N/A
12:15 pm 12:15 Mostly Cloudy 45 7.4 22 -5.5 40 40 S 7 11 30.09 1019 10 16 N/A
12:35 pm 12:35 Partly Cloudy 47 8.2 22 -5.3 38 38 SSW 3 6 30.07 1018 10 16 N/A
12:55 pm 12:55 Sunny 48 9 23 -4.8 38 38 SW 7 11 30.06 1018 10 16 N/A
1:15 pm 13:15 Sunny 48 9.1 22 -5.3 36 36 S 10 17 30.05 1018 10 16 N/A
1:35 pm 13:35 Mostly Cloudy 48 9 22 -5.3 36 36 ESE 8 13 30.04 1017 10 16 N/A
1:55 pm 13:55 Partly Cloudy 49 9.7 22 -5.5 34 34 SSE 8 13 30.03 1017 10 16 N/A
2:15 pm 14:15 Partly Cloudy 51 10.7 22 -5.7 31 31 S 5 7 30.02 1016 10 16 N/A
2:35 pm 14:35 Mostly Cloudy 52 11.2 24 -4.5 33 33 SW 7 11 30.00 1016 10 16 N/A
2:55 pm 14:55 Partly Cloudy 52 11.3 23 -5 32 32 S 8 13 29.99 1016 10 16 N/A
3:15 pm 15:15 Partly Cloudy 54 12.3 24 -4.4 31 31 SSW 9 15 29.98 1015 10 16 N/A
3:35 pm 15:35 Partly Cloudy 52 11.2 23 -5 32 32 SSW 6 9 29.98 1015 10 16 N/A
3:55 pm 15:55 Mostly Cloudy 55 12.8 24 -4.4 30 30 S 12 19 29.96 1014 10 16 N/A
4:15 pm 16:15 Mostly Cloudy 55 12.7 25 -4 31 31 SSE 8 13 29.95 1014 10 16 N/A
4:35 pm 16:35 Partly Cloudy 55 12.6 24 -4.2 31 31 SSE 10 17 29.94 1014 10 16 N/A
4:55 pm 16:55 Partly Cloudy 56 13.2 25 -3.8 31 31 S 12 19 29.93 1014 10 16 N/A
5:15 pm 17:15 Mostly Cloudy 56 13.6 25 -4 29 29 SSW 8 13 29.92 1013 10 16 N/A
5:35 pm 17:35 Partly Cloudy 55 12.9 25 -4.1 31 31 SSE 12 19 29.93 1013 10 16 N/A
5:55 pm 17:55 Mostly Cloudy 55 12.5 25 -3.9 32 32 SSE 8 13 29.94 1014 10 16 N/A
6:15 pm 18:15 Cloudy 55 12.5 25 -4 32 32 S 8 13 29.94 1014 10 16 N/A
6:35 pm 18:35 Cloudy 54 12.2 26 -3.3 34 34 SSW 14 22 29.95 1014 10 16 N/A
6:55 pm 18:55 Cloudy 53 11.6 27 -2.8 37 37 N N/A 29.96 1015 10 16 N/A
7:15 pm 19:15 Cloudy 53 11.8 27 -3 36 36 SW 10 17 29.96 1014 10 16 N/A
7:35 pm 19:35 Cloudy 53 11.4 28 -2.1 39 39 SSW 15 24 29.96 1015 10 16 N/A
7:55 pm 19:55 Partly Cloudy 52 11.1 28 -2.5 39 39 SSW 10 17 29.95 1014 10 16 N/A
8:15 pm 20:15 Partly Cloudy 52 11 27 -2.6 39 39 SSW 15 24 29.96 1015 10 16 N/A
8:35 pm 20:35 Partly Cloudy 51 10.5 29 -1.9 42 42 S 10 17 29.97 1015 10 16 N/A
8:55 pm 20:55 Clear 50 9.9 29 -1.6 45 45 S 9 15 29.98 1015 10 16 N/A
9:15 pm 21:15 Partly Cloudy 49 9.2 29 -1.6 47 47 SSW 6 9 30.00 1016 10 16 N/A
9:35 pm 21:35 Partly Cloudy 47 8.5 29 -1.8 49 49 SSW 3 6 30.02 1016 10 16 N/A
9:55 pm 21:55 Mostly Cloudy 48 8.9 30 -1.2 49 49 N 12 19 30.03 1017 10 16 N/A
10:15 pm 22:15 Cloudy 50 10 29 -1.5 45 45 N 7 11 30.04 1017 10 16 N/A
10:35 pm 22:35 Cloudy 48 8.9 32 undefined 54 54 NE 12 19 30.06 1018 10 16 N/A
10:55 pm 22:55 Cloudy 47 8.2 33 0.7 60 60 NE 9 15 30.08 1019 10 16 N/A
11:15 pm 23:15 Cloudy 47 8.1 34 1.3 63 63 ENE 15 24 30.09 1019 10 16 N/A
11:35 pm 23:35 Cloudy 45 7.4 35 1.7 67 67 E 13 20 30.10 1019 10 16 N/A
11:55 pm 23:55 Mostly Cloudy 44 6.4 34 0.9 68 68 E 13 20 30.10 1019 10 16 N/A

Powered by AerisWeather